Year,Month,Day,Hour,Minute,Value (Times are PST for temperature in C)
2007,06,01,00,00,15.00
2007,06,01,00,01,15.00
2007,06,01,00,02,15.00
2007,06,01,00,03,15.00
2007,06,01,00,04,15.00
2007,06,01,00,05,15.00
2007,06,01,00,06,15.00
2007,06,01,00,07,15.00
2007,06,01,00,08,15.00
2007,06,01,00,09,15.00
2007,06,01,00,10,15.00
2007,06,01,00,11,15.00
2007,06,01,00,12,15.00
2007,06,01,00,13,15.00
2007,06,01,00,14,15.00
2007,06,01,00,15,15.00
2007,06,01,00,16,15.00
2007,06,01,00,17,15.20
2007,06,01,00,18,15.20
2007,06,01,00,19,15.30
2007,06,01,00,20,15.40
2007,06,01,00,21,15.50
2007,06,01,00,22,15.60
2007,06,01,00,23,15.60
2007,06,01,00,24,15.60
2007,06,01,00,25,15.50
2007,06,01,00,26,15.50
2007,06,01,00,27,15.40
2007,06,01,00,28,15.40
2007,06,01,00,29,15.30
2007,06,01,00,30,15.30
2007,06,01,00,31,15.20
2007,06,01,00,32,15.20
2007,06,01,00,33,15.20
2007,06,01,00,34,15.20
2007,06,01,00,35,15.10
2007,06,01,00,36,15.10
2007,06,01,00,37,15.10
2007,06,01,00,38,15.00
2007,06,01,00,39,15.00
2007,06,01,00,40,15.00
2007,06,01,00,41,15.00
2007,06,01,00,42,15.00
2007,06,01,00,43,15.00
2007,06,01,00,44,15.00
2007,06,01,00,45,15.00
2007,06,01,00,46,14.90
2007,06,01,00,47,14.80
2007,06,01,00,48,14.80
2007,06,01,00,49,14.70
2007,06,01,00,50,14.60
2007,06,01,00,51,14.60
2007,06,01,00,52,14.50
2007,06,01,00,53,14.50
2007,06,01,00,54,14.40
2007,06,01,00,55,14.30
2007,06,01,00,56,14.20
2007,06,01,00,57,14.20
2007,06,01,00,58,14.10
2007,06,01,00,59,14.10
2007,06,01,01,00,14.00
2007,06,01,01,01,13.90
2007,06,01,01,02,13.90
2007,06,01,01,03,13.80
2007,06,01,01,04,13.70
2007,06,01,01,05,13.70
2007,06,01,01,06,13.70
2007,06,01,01,07,13.60
2007,06,01,01,08,13.60
2007,06,01,01,09,13.50
2007,06,01,01,10,13.40
2007,06,01,01,11,13.40
2007,06,01,01,12,13.30
2007,06,01,01,13,13.30
2007,06,01,01,14,13.30
2007,06,01,01,15,13.30
2007,06,01,01,16,13.40
2007,06,01,01,17,13.50
2007,06,01,01,18,13.50
2007,06,01,01,19,13.70
2007,06,01,01,20,13.80
2007,06,01,01,21,14.00
2007,06,01,01,22,14.20
2007,06,01,01,23,14.30
2007,06,01,01,24,14.40
2007,06,01,01,25,14.50
2007,06,01,01,26,14.60
2007,06,01,01,27,14.70
2007,06,01,01,28,14.70
2007,06,01,01,29,14.80
2007,06,01,01,30,14.80
2007,06,01,01,31,14.90
2007,06,01,01,32,15.00
2007,06,01,01,33,15.00
2007,06,01,01,34,15.00
2007,06,01,01,35,15.00
2007,06,01,01,36,15.00
2007,06,01,01,37,14.90
2007,06,01,01,38,14.80
2007,06,01,01,39,14.80
2007,06,01,01,40,14.70
2007,06,01,01,41,14.70
2007,06,01,01,42,14.70
2007,06,01,01,43,14.70
2007,06,01,01,44,14.70
2007,06,01,01,45,14.70
2007,06,01,01,46,14.60
2007,06,01,01,47,14.60
2007,06,01,01,48,14.60
2007,06,01,01,49,14.50
2007,06,01,01,50,14.40
2007,06,01,01,51,14.40
2007,06,01,01,52,14.30
2007,06,01,01,53,14.30
2007,06,01,01,54,14.20
2007,06,01,01,55,14.20
2007,06,01,01,56,14.10
2007,06,01,01,57,14.10
2007,06,01,01,58,14.00
2007,06,01,01,59,14.00
2007,06,01,02,00,13.90
2007,06,01,02,01,13.90
2007,06,01,02,02,13.80
2007,06,01,02,03,13.80
2007,06,01,02,04,13.70
2007,06,01,02,05,13.70
2007,06,01,02,06,13.60
2007,06,01,02,07,13.60
2007,06,01,02,08,13.60
2007,06,01,02,09,13.50
2007,06,01,02,10,13.40
2007,06,01,02,11,13.40
2007,06,01,02,12,13.30
2007,06,01,02,13,13.20
2007,06,01,02,14,13.20
2007,06,01,02,15,13.10
2007,06,01,02,16,13.10
2007,06,01,02,17,13.10
2007,06,01,02,18,13.00
2007,06,01,02,19,13.00
2007,06,01,02,20,13.00
2007,06,01,02,21,13.00
2007,06,01,02,22,13.10
2007,06,01,02,23,13.10
2007,06,01,02,24,13.00
2007,06,01,02,25,13.00
2007,06,01,02,26,12.90
2007,06,01,02,27,12.90
2007,06,01,02,28,12.90
2007,06,01,02,29,12.80
2007,06,01,02,30,12.80
2007,06,01,02,31,12.80
2007,06,01,02,32,12.80
2007,06,01,02,33,12.90
2007,06,01,02,34,12.90
2007,06,01,02,35,13.00
2007,06,01,02,36,13.00
2007,06,01,02,37,13.10
2007,06,01,02,38,13.20
2007,06,01,02,39,13.20
2007,06,01,02,40,13.30
2007,06,01,02,41,13.40
2007,06,01,02,42,13.40
2007,06,01,02,43,13.40
2007,06,01,02,44,13.40
2007,06,01,02,45,13.40
2007,06,01,02,46,13.40
2007,06,01,02,47,13.40
2007,06,01,02,48,13.40
2007,06,01,02,49,13.30
2007,06,01,02,50,13.30
2007,06,01,02,51,13.20
2007,06,01,02,52,13.10
2007,06,01,02,53,13.00
2007,06,01,02,54,12.90
2007,06,01,02,55,12.90
2007,06,01,02,56,12.80
2007,06,01,02,57,12.70
2007,06,01,02,58,12.60
2007,06,01,02,59,12.60
2007,06,01,03,00,12.60
2007,06,01,03,01,12.60
2007,06,01,03,02,12.60
2007,06,01,03,03,12.60
2007,06,01,03,04,12.60
2007,06,01,03,05,12.60
2007,06,01,03,06,12.60
2007,06,01,03,07,12.60
2007,06,01,03,08,12.70
2007,06,01,03,09,12.70
2007,06,01,03,10,12.80
2007,06,01,03,11,12.90
2007,06,01,03,12,13.10
2007,06,01,03,13,13.20
2007,06,01,03,14,13.30
2007,06,01,03,15,13.50
2007,06,01,03,16,13.60
2007,06,01,03,17,13.70
2007,06,01,03,18,13.80
2007,06,01,03,19,13.80
2007,06,01,03,20,13.90
2007,06,01,03,21,13.90
2007,06,01,03,22,13.90
2007,06,01,03,23,14.00
2007,06,01,03,24,14.00
2007,06,01,03,25,14.10
2007,06,01,03,26,14.10
2007,06,01,03,27,14.10
2007,06,01,03,28,14.10
2007,06,01,03,29,14.10
2007,06,01,03,30,14.10
2007,06,01,03,31,14.10
2007,06,01,03,32,14.10
2007,06,01,03,33,14.10
2007,06,01,03,34,14.10
2007,06,01,03,35,14.10
2007,06,01,03,36,14.10
2007,06,01,03,37,14.00
2007,06,01,03,38,14.00
2007,06,01,03,39,13.90
2007,06,01,03,40,13.90
2007,06,01,03,41,13.90
2007,06,01,03,42,13.90
2007,06,01,03,43,13.90
2007,06,01,03,44,13.80
2007,06,01,03,45,13.80
2007,06,01,03,46,13.70
2007,06,01,03,47,13.70
2007,06,01,03,48,13.60
2007,06,01,03,49,13.50
2007,06,01,03,50,13.30
2007,06,01,03,51,13.20
2007,06,01,03,52,13.10
2007,06,01,03,53,12.90
2007,06,01,03,54,12.80
2007,06,01,03,55,12.70
2007,06,01,03,56,12.60
2007,06,01,03,57,12.60
2007,06,01,03,58,12.60
2007,06,01,03,59,12.50
2007,06,01,04,00,12.50
2007,06,01,04,01,12.40
2007,06,01,04,02,12.40
2007,06,01,04,03,12.40
2007,06,01,04,04,12.40
2007,06,01,04,05,12.30
2007,06,01,04,06,12.30
2007,06,01,04,07,12.30
2007,06,01,04,08,12.30
2007,06,01,04,09,12.20
2007,06,01,04,10,12.20
2007,06,01,04,11,12.10
2007,06,01,04,12,12.10
2007,06,01,04,13,12.00
2007,06,01,04,14,12.00
2007,06,01,04,15,11.90
2007,06,01,04,16,11.90
2007,06,01,04,17,11.80
2007,06,01,04,18,11.80
2007,06,01,04,19,11.70
2007,06,01,04,20,11.60
2007,06,01,04,21,11.60
2007,06,01,04,22,11.60
2007,06,01,04,23,11.60
2007,06,01,04,24,11.60
2007,06,01,04,25,11.60
2007,06,01,04,26,11.70
2007,06,01,04,27,11.70
2007,06,01,04,28,11.70
2007,06,01,04,29,11.70
2007,06,01,04,30,11.70
2007,06,01,04,31,11.70
2007,06,01,04,32,11.80
2007,06,01,04,33,11.80
2007,06,01,04,34,11.80
2007,06,01,04,35,11.80
2007,06,01,04,36,11.80
2007,06,01,04,37,11.70
2007,06,01,04,38,11.70
2007,06,01,04,39,11.60
2007,06,01,04,40,11.60
2007,06,01,04,41,11.60
2007,06,01,04,42,11.70
2007,06,01,04,43,11.70
2007,06,01,04,44,11.70
2007,06,01,04,45,11.80
2007,06,01,04,46,11.80
2007,06,01,04,47,11.80
2007,06,01,04,48,11.90
2007,06,01,04,49,11.90
2007,06,01,04,50,11.90
2007,06,01,04,51,11.90
2007,06,01,04,52,11.90
2007,06,01,04,53,11.90
2007,06,01,04,54,11.90
2007,06,01,04,55,11.90
2007,06,01,04,56,11.90
2007,06,01,04,57,11.80
2007,06,01,04,58,11.80
2007,06,01,04,59,11.80
2007,06,01,05,00,11.80
2007,06,01,05,01,11.80
2007,06,01,05,02,11.70
2007,06,01,05,03,11.70
2007,06,01,05,04,11.70
2007,06,01,05,05,11.70
2007,06,01,05,06,11.60
2007,06,01,05,07,11.60
2007,06,01,05,08,11.60
2007,06,01,05,09,11.60
2007,06,01,05,10,11.60
2007,06,01,05,11,11.70
2007,06,01,05,12,11.70
2007,06,01,05,13,11.70
2007,06,01,05,14,11.70
2007,06,01,05,15,11.70
2007,06,01,05,16,11.70
2007,06,01,05,17,11.70
2007,06,01,05,18,11.70
2007,06,01,05,19,11.70
2007,06,01,05,20,11.60
2007,06,01,05,21,11.60
2007,06,01,05,22,11.50
2007,06,01,05,23,11.50
2007,06,01,05,24,11.40
2007,06,01,05,25,11.30
2007,06,01,05,26,11.30
2007,06,01,05,27,11.30
2007,06,01,05,28,11.30
2007,06,01,05,29,11.40
2007,06,01,05,30,11.50
2007,06,01,05,31,11.50
2007,06,01,05,32,11.60
2007,06,01,05,33,11.60
2007,06,01,05,34,11.60
2007,06,01,05,35,11.60
2007,06,01,05,36,11.60
2007,06,01,05,37,11.70
2007,06,01,05,38,11.70
2007,06,01,05,39,11.70
2007,06,01,05,40,11.70
2007,06,01,05,41,11.70
2007,06,01,05,42,11.70
2007,06,01,05,43,11.70
2007,06,01,05,44,11.70
2007,06,01,05,45,11.60
2007,06,01,05,46,11.60
2007,06,01,05,47,11.60
2007,06,01,05,48,11.60
2007,06,01,05,49,11.50
2007,06,01,05,50,11.40
2007,06,01,05,51,11.40
2007,06,01,05,52,11.30
2007,06,01,05,53,11.30
2007,06,01,05,54,11.30
2007,06,01,05,55,11.40
2007,06,01,05,56,11.40
2007,06,01,05,57,11.50
2007,06,01,05,58,11.50
2007,06,01,05,59,11.60
2007,06,01,06,00,11.70
2007,06,01,06,01,11.80
2007,06,01,06,02,11.90
2007,06,01,06,03,11.90
2007,06,01,06,04,12.00
2007,06,01,06,05,12.10
2007,06,01,06,06,12.10
2007,06,01,06,07,12.20
2007,06,01,06,08,12.30
2007,06,01,06,09,12.30
2007,06,01,06,10,12.40
2007,06,01,06,11,12.40
2007,06,01,06,12,12.50
2007,06,01,06,13,12.50
2007,06,01,06,14,12.50
2007,06,01,06,15,12.60
2007,06,01,06,16,12.60
2007,06,01,06,17,12.70
2007,06,01,06,18,12.70
2007,06,01,06,19,12.70
2007,06,01,06,20,12.70
2007,06,01,06,21,12.80
2007,06,01,06,22,12.80
2007,06,01,06,23,12.90
2007,06,01,06,24,12.90
2007,06,01,06,25,13.00
2007,06,01,06,26,13.00
2007,06,01,06,27,13.10
2007,06,01,06,28,13.10
2007,06,01,06,29,13.20
2007,06,01,06,30,13.20
2007,06,01,06,31,13.20
2007,06,01,06,32,13.30
2007,06,01,06,33,13.30
2007,06,01,06,34,13.40
2007,06,01,06,35,13.40
2007,06,01,06,36,13.50
2007,06,01,06,37,13.60
2007,06,01,06,38,13.70
2007,06,01,06,39,13.80
2007,06,01,06,40,13.90
2007,06,01,06,41,14.00
2007,06,01,06,42,14.10
2007,06,01,06,43,14.20
2007,06,01,06,44,14.30
2007,06,01,06,45,14.40
2007,06,01,06,46,14.50
2007,06,01,06,47,14.60
2007,06,01,06,48,14.70
2007,06,01,06,49,14.80
2007,06,01,06,50,14.80
2007,06,01,06,51,15.00
2007,06,01,06,52,15.00
2007,06,01,06,53,15.00
2007,06,01,06,54,15.00
2007,06,01,06,55,15.00
2007,06,01,06,56,15.00
2007,06,01,06,57,15.10
2007,06,01,06,58,15.20
2007,06,01,06,59,15.20
2007,06,01,07,00,15.30
2007,06,01,07,01,15.30
2007,06,01,07,02,15.30
2007,06,01,07,03,15.40
2007,06,01,07,04,15.40
2007,06,01,07,05,15.40
2007,06,01,07,06,15.50
2007,06,01,07,07,15.50
2007,06,01,07,08,15.60
2007,06,01,07,09,15.60
2007,06,01,07,10,15.60
2007,06,01,07,11,15.60
2007,06,01,07,12,15.70
2007,06,01,07,13,15.70
2007,06,01,07,14,15.70
2007,06,01,07,15,15.80
2007,06,01,07,16,15.80
2007,06,01,07,17,15.80
2007,06,01,07,18,15.90
2007,06,01,07,19,15.80
2007,06,01,07,20,15.80
2007,06,01,07,21,15.80
2007,06,01,07,22,15.80
2007,06,01,07,23,15.80
2007,06,01,07,24,15.80
2007,06,01,07,25,15.80
2007,06,01,07,26,15.80
2007,06,01,07,27,15.80
2007,06,01,07,28,15.80
2007,06,01,07,29,15.80
2007,06,01,07,30,15.80
2007,06,01,07,31,15.80
2007,06,01,07,32,15.80
2007,06,01,07,33,15.80
2007,06,01,07,34,15.80
2007,06,01,07,35,15.90
2007,06,01,07,36,15.90
2007,06,01,07,37,15.90
2007,06,01,07,38,15.90
2007,06,01,07,39,16.00
2007,06,01,07,40,16.00
2007,06,01,07,41,16.10
2007,06,01,07,42,16.10
2007,06,01,07,43,16.10
2007,06,01,07,44,16.10
2007,06,01,07,45,16.10
2007,06,01,07,46,16.20
2007,06,01,07,47,16.20
2007,06,01,07,48,16.30
2007,06,01,07,49,16.30
2007,06,01,07,50,16.40
2007,06,01,07,51,16.50
2007,06,01,07,52,16.60
2007,06,01,07,53,16.70
2007,06,01,07,54,16.80
2007,06,01,07,55,16.90
2007,06,01,07,56,16.90
2007,06,01,07,57,16.90
2007,06,01,07,58,16.90
2007,06,01,07,59,16.90
2007,06,01,08,00,17.00
2007,06,01,08,01,17.00
2007,06,01,08,02,17.10
2007,06,01,08,03,17.20
2007,06,01,08,04,17.30
2007,06,01,08,05,17.40
2007,06,01,08,06,17.40
2007,06,01,08,07,17.40
2007,06,01,08,08,17.30
2007,06,01,08,09,17.30
2007,06,01,08,10,17.30
2007,06,01,08,11,17.20
2007,06,01,08,12,17.20
2007,06,01,08,13,17.20
2007,06,01,08,14,17.10
2007,06,01,08,15,17.20
2007,06,01,08,16,17.20
2007,06,01,08,17,17.20
2007,06,01,08,18,17.30
2007,06,01,08,19,17.30
2007,06,01,08,20,17.30
2007,06,01,08,21,17.20
2007,06,01,08,22,17.30
2007,06,01,08,23,17.30
2007,06,01,08,24,17.30
2007,06,01,08,25,17.30
2007,06,01,08,26,17.30
2007,06,01,08,27,17.30
2007,06,01,08,28,17.30
2007,06,01,08,29,17.40
2007,06,01,08,30,17.40
2007,06,01,08,31,17.50
2007,06,01,08,32,17.50
2007,06,01,08,33,17.60
2007,06,01,08,34,17.60
2007,06,01,08,35,17.60
2007,06,01,08,36,17.50
2007,06,01,08,37,17.50
2007,06,01,08,38,17.40
2007,06,01,08,39,17.40
2007,06,01,08,40,17.40
2007,06,01,08,41,17.40
2007,06,01,08,42,17.40
2007,06,01,08,43,17.40
2007,06,01,08,44,17.50
2007,06,01,08,45,17.50
2007,06,01,08,46,17.50
2007,06,01,08,47,17.60
2007,06,01,08,48,17.50
2007,06,01,08,49,17.50
2007,06,01,08,50,17.40
2007,06,01,08,51,17.40
2007,06,01,08,52,17.30
2007,06,01,08,53,17.30
2007,06,01,08,54,17.30
2007,06,01,08,55,17.30
2007,06,01,08,56,17.30
2007,06,01,08,57,17.40
2007,06,01,08,58,17.40
2007,06,01,08,59,17.40
2007,06,01,09,00,17.40
2007,06,01,09,01,17.30
2007,06,01,09,02,17.20
2007,06,01,09,03,17.10
2007,06,01,09,04,17.00
2007,06,01,09,05,17.00
2007,06,01,09,06,16.90
2007,06,01,09,07,17.00
2007,06,01,09,08,17.10
2007,06,01,09,09,17.20
2007,06,01,09,10,17.20
2007,06,01,09,11,17.20
2007,06,01,09,12,17.30
2007,06,01,09,13,17.30
2007,06,01,09,14,17.30
2007,06,01,09,15,17.30
2007,06,01,09,16,17.30
2007,06,01,09,17,17.30
2007,06,01,09,18,17.20
2007,06,01,09,19,17.10
2007,06,01,09,20,17.10
2007,06,01,09,21,17.20
2007,06,01,09,22,17.30
2007,06,01,09,23,17.30
2007,06,01,09,24,17.30
2007,06,01,09,25,17.30
2007,06,01,09,26,17.30
2007,06,01,09,27,17.30
2007,06,01,09,28,17.30
2007,06,01,09,29,17.40
2007,06,01,09,30,17.40
2007,06,01,09,31,17.50
2007,06,01,09,32,17.50
2007,06,01,09,33,17.60
2007,06,01,09,34,17.60
2007,06,01,09,35,17.60
2007,06,01,09,36,17.60
2007,06,01,09,37,17.60
2007,06,01,09,38,17.60
2007,06,01,09,39,17.60
2007,06,01,09,40,17.60
2007,06,01,09,41,17.70
2007,06,01,09,42,17.70
2007,06,01,09,43,17.70
2007,06,01,09,44,17.70
2007,06,01,09,45,17.70
2007,06,01,09,46,17.60
2007,06,01,09,47,17.60
2007,06,01,09,48,17.60
2007,06,01,09,49,17.60
2007,06,01,09,50,17.60
2007,06,01,09,51,17.60
2007,06,01,09,52,17.60
2007,06,01,09,53,17.60
2007,06,01,09,54,17.60
2007,06,01,09,55,17.70
2007,06,01,09,56,17.70
2007,06,01,09,57,17.70
2007,06,01,09,58,17.70
2007,06,01,09,59,17.60
2007,06,01,10,00,17.50
2007,06,01,10,01,17.50
2007,06,01,10,02,17.50
2007,06,01,10,03,17.40
2007,06,01,10,04,17.40
2007,06,01,10,05,17.50
2007,06,01,10,06,17.50
2007,06,01,10,07,17.60
2007,06,01,10,08,17.60
2007,06,01,10,09,17.70
2007,06,01,10,10,17.70
2007,06,01,10,11,17.80
2007,06,01,10,12,17.80
2007,06,01,10,13,17.70
2007,06,01,10,14,17.70
2007,06,01,10,15,17.70
2007,06,01,10,16,17.70
2007,06,01,10,17,17.80
2007,06,01,10,18,17.90
2007,06,01,10,19,18.00
2007,06,01,10,20,18.10
2007,06,01,10,21,18.20
2007,06,01,10,22,18.20
2007,06,01,10,23,18.30
2007,06,01,10,24,18.30
2007,06,01,10,25,18.40
2007,06,01,10,26,18.40
2007,06,01,10,27,18.50
2007,06,01,10,28,18.50
2007,06,01,10,29,18.60
2007,06,01,10,30,18.60
2007,06,01,10,31,18.70
2007,06,01,10,32,18.60
2007,06,01,10,33,18.70
2007,06,01,10,34,18.60
2007,06,01,10,35,18.60
2007,06,01,10,36,18.60
2007,06,01,10,37,18.60
2007,06,01,10,38,18.60
2007,06,01,10,39,18.60
2007,06,01,10,40,18.50
2007,06,01,10,41,18.40
2007,06,01,10,42,18.30
2007,06,01,10,43,18.20
2007,06,01,10,44,18.10
2007,06,01,10,45,18.00
2007,06,01,10,46,18.00
2007,06,01,10,47,17.90
2007,06,01,10,48,17.90
2007,06,01,10,49,18.00
2007,06,01,10,50,18.10
2007,06,01,10,51,18.20
2007,06,01,10,52,18.20
2007,06,01,10,53,18.30
2007,06,01,10,54,18.40
2007,06,01,10,55,18.50
2007,06,01,10,56,18.70
2007,06,01,10,57,18.90
2007,06,01,10,58,19.10
2007,06,01,10,59,19.20
2007,06,01,11,00,19.30
2007,06,01,11,01,19.40
2007,06,01,11,02,19.40
2007,06,01,11,03,19.50
2007,06,01,11,04,19.40
2007,06,01,11,05,19.40
2007,06,01,11,06,19.40
2007,06,01,11,07,19.50
2007,06,01,11,08,19.60
2007,06,01,11,09,19.60
2007,06,01,11,10,19.60
2007,06,01,11,11,19.50
2007,06,01,11,12,19.40
2007,06,01,11,13,19.30
2007,06,01,11,14,19.20
2007,06,01,11,15,19.10
2007,06,01,11,16,19.00
2007,06,01,11,17,19.10
2007,06,01,11,18,19.10
2007,06,01,11,19,19.10
2007,06,01,11,20,19.10
2007,06,01,11,21,19.00
2007,06,01,11,22,18.90
2007,06,01,11,23,18.90
2007,06,01,11,24,18.90
2007,06,01,11,25,18.90
2007,06,01,11,26,18.80
2007,06,01,11,27,18.80
2007,06,01,11,28,18.80
2007,06,01,11,29,18.90
2007,06,01,11,30,19.00
2007,06,01,11,31,19.20
2007,06,01,11,32,19.20
2007,06,01,11,33,19.20
2007,06,01,11,34,19.30
2007,06,01,11,35,19.30
2007,06,01,11,36,19.40
2007,06,01,11,37,19.50
2007,06,01,11,38,19.50
2007,06,01,11,39,19.60
2007,06,01,11,40,19.70
2007,06,01,11,41,19.80
2007,06,01,11,42,19.90
2007,06,01,11,43,19.90
2007,06,01,11,44,19.90
2007,06,01,11,45,19.80
2007,06,01,11,46,19.70
2007,06,01,11,47,19.60
2007,06,01,11,48,19.50
2007,06,01,11,49,19.40
2007,06,01,11,50,19.30
2007,06,01,11,51,19.20
2007,06,01,11,52,19.30
2007,06,01,11,53,19.30
2007,06,01,11,54,19.40
2007,06,01,11,55,19.50
2007,06,01,11,56,19.60
2007,06,01,11,57,19.60
2007,06,01,11,58,19.60
2007,06,01,11,59,19.70
2007,06,01,12,00,19.70
2007,06,01,12,01,19.80
2007,06,01,12,02,19.80
2007,06,01,12,03,19.80
2007,06,01,12,04,19.90
2007,06,01,12,05,20.00
2007,06,01,12,06,20.00
2007,06,01,12,07,20.20
2007,06,01,12,08,20.30
2007,06,01,12,09,20.40
2007,06,01,12,10,20.50
2007,06,01,12,11,20.60
2007,06,01,12,12,20.70
2007,06,01,12,13,20.70
2007,06,01,12,14,20.70
2007,06,01,12,15,20.60
2007,06,01,12,16,20.60
2007,06,01,12,17,20.50
2007,06,01,12,18,20.50
2007,06,01,12,19,20.40
2007,06,01,12,20,20.30
2007,06,01,12,21,20.40
2007,06,01,12,22,20.40
2007,06,01,12,23,20.40
2007,06,01,12,24,20.50
2007,06,01,12,25,20.60
2007,06,01,12,26,20.70
2007,06,01,12,27,20.90
2007,06,01,12,28,21.10
2007,06,01,12,29,21.20
2007,06,01,12,30,21.30
2007,06,01,12,31,21.40
2007,06,01,12,32,21.40
2007,06,01,12,33,21.40
2007,06,01,12,34,21.40
2007,06,01,12,35,21.40
2007,06,01,12,36,21.40
2007,06,01,12,37,21.50
2007,06,01,12,38,21.60
2007,06,01,12,39,21.60
2007,06,01,12,40,21.60
2007,06,01,12,41,21.70
2007,06,01,12,42,21.70
2007,06,01,12,43,21.70
2007,06,01,12,44,21.60
2007,06,01,12,45,21.60
2007,06,01,12,46,21.60
2007,06,01,12,47,21.70
2007,06,01,12,48,21.80
2007,06,01,12,49,21.80
2007,06,01,12,50,21.80
2007,06,01,12,51,21.80
2007,06,01,12,52,21.80
2007,06,01,12,53,21.80
2007,06,01,12,54,21.80
2007,06,01,12,55,21.90
2007,06,01,12,56,22.00
2007,06,01,12,57,22.00
2007,06,01,12,58,22.00
2007,06,01,12,59,22.00
2007,06,01,13,00,22.00
2007,06,01,13,01,22.00
2007,06,01,13,02,21.90
2007,06,01,13,03,21.80
2007,06,01,13,04,21.80
2007,06,01,13,05,21.90
2007,06,01,13,06,22.00
2007,06,01,13,07,22.10
2007,06,01,13,08,22.20
2007,06,01,13,09,22.30
2007,06,01,13,10,22.30
2007,06,01,13,11,22.20
2007,06,01,13,12,22.20
2007,06,01,13,13,22.10
2007,06,01,13,14,22.10
2007,06,01,13,15,22.10
2007,06,01,13,16,22.00
2007,06,01,13,17,21.80
2007,06,01,13,18,21.70
2007,06,01,13,19,21.60
2007,06,01,13,20,21.50
2007,06,01,13,21,21.60
2007,06,01,13,22,21.60
2007,06,01,13,23,21.70
2007,06,01,13,24,21.80
2007,06,01,13,25,21.80
2007,06,01,13,26,21.90
2007,06,01,13,27,22.00
2007,06,01,13,28,22.10
2007,06,01,13,29,22.20
2007,06,01,13,30,22.20
2007,06,01,13,31,22.20
2007,06,01,13,32,22.20
2007,06,01,13,33,22.20
2007,06,01,13,34,22.30
2007,06,01,13,35,22.30
2007,06,01,13,36,22.40
2007,06,01,13,37,22.40
2007,06,01,13,38,22.50
2007,06,01,13,39,22.50
2007,06,01,13,40,22.60
2007,06,01,13,41,22.60
2007,06,01,13,42,22.60
2007,06,01,13,43,22.60
2007,06,01,13,44,22.50
2007,06,01,13,45,22.40
2007,06,01,13,46,22.40
2007,06,01,13,47,22.40
2007,06,01,13,48,22.40
2007,06,01,13,49,22.30
2007,06,01,13,50,22.30
2007,06,01,13,51,22.40
2007,06,01,13,52,22.40
2007,06,01,13,53,22.40
2007,06,01,13,54,22.50
2007,06,01,13,55,22.50
2007,06,01,13,56,22.60
2007,06,01,13,57,22.50
2007,06,01,13,58,22.40
2007,06,01,13,59,22.40
2007,06,01,14,00,22.30
2007,06,01,14,01,22.30
2007,06,01,14,02,22.30
2007,06,01,14,03,22.30
2007,06,01,14,04,22.50
2007,06,01,14,05,22.60
2007,06,01,14,06,22.60
2007,06,01,14,07,22.70
2007,06,01,14,08,22.90
2007,06,01,14,09,23.00
2007,06,01,14,10,23.10
2007,06,01,14,11,23.20
2007,06,01,14,12,23.20
2007,06,01,14,13,23.10
2007,06,01,14,14,23.00
2007,06,01,14,15,22.90
2007,06,01,14,16,22.80
2007,06,01,14,17,22.70
2007,06,01,14,18,22.60
2007,06,01,14,19,22.60
2007,06,01,14,20,22.60
2007,06,01,14,21,22.60
2007,06,01,14,22,22.70
2007,06,01,14,23,22.80
2007,06,01,14,24,22.80
2007,06,01,14,25,22.90
2007,06,01,14,26,23.00
2007,06,01,14,27,23.10
2007,06,01,14,28,23.20
2007,06,01,14,29,23.20
2007,06,01,14,30,23.30
2007,06,01,14,31,23.40
2007,06,01,14,32,23.60
2007,06,01,14,33,23.70
2007,06,01,14,34,23.80
2007,06,01,14,35,23.80
2007,06,01,14,36,23.80
2007,06,01,14,37,23.70
2007,06,01,14,38,23.80
2007,06,01,14,39,23.70
2007,06,01,14,40,23.60
2007,06,01,14,41,23.40
2007,06,01,14,42,23.20
2007,06,01,14,43,23.10
2007,06,01,14,44,23.10
2007,06,01,14,45,23.10
2007,06,01,14,46,23.20
2007,06,01,14,47,23.40
2007,06,01,14,48,23.50
2007,06,01,14,49,23.60
2007,06,01,14,50,23.70
2007,06,01,14,51,23.70
2007,06,01,14,52,23.80
2007,06,01,14,53,23.80
2007,06,01,14,54,23.80
2007,06,01,14,55,23.80
2007,06,01,14,56,23.80
2007,06,01,14,57,23.90
2007,06,01,14,58,24.00
2007,06,01,14,59,24.10
2007,06,01,15,00,24.10
